Location: ????????
(55.7667°N, 37.4833°E)
Time: 14:36:20
(UTC+00:00)

Cosmos 1437 Rocket - Pass Details

Date: 19 May 2025
Orbit: 456 x 499 km, 81.2° (Epoch: 19 June)

Event Time Altitude Azimuth Distance (km) Brightness Sun altitude
Exits shadow 22:27:12 13° 147° (SSE) 1,426 4.5 -13.2°
Maximum altitude 22:29:41 27° 93° (E) 922 4.1 -13.1°
Drops below altitude 10° 22:32:42 10° 35° (NE) 1,615 6.5 -13.0°
Sets 22:34:58 0° 23° (NNE) 2,494 8.2 -12.9°
